Coldwater, MI

4:54 PM EDT on May 21, 2018 (GMT -0400)
Branch County Memorial

Weather History for KOEB - March, 2013

Change the Weather History Date:

Saturday, March 16, 2013

  Actual Average (KJYM) Record (KJYM)
Temperature  
Mean Temperature 32 °F -  
Max Temperature 35 °F 44 °F 76 °F (1990)
Min Temperature 28 °F 23 °F 9 °F (1992)
Degree Days  
Heating Degree Days 34    
Moisture  
Dew Point 28 °F    
Average Humidity 87    
Maximum Humidity 95    
Minimum Humidity 72    
Precipitation  
Precipitation 0.00 in - - ()
Sea Level Pressure  
Sea Level Pressure 29.84 in    
Wind  
Wind Speed 7 mph (NE)    
Max Wind Speed 14 mph    
Max Gust Speed 20 mph    
Visibility 8 miles    
Events Rain , Snow    
Averages and records for this station are not official NWS values.
T = Trace of Precipitation, MM = Missing Value Source: NWS Daily Summary

Daily Weather History Graph

Daily Weather History Graph

Search for Another Location

Airport or City:

Astronomy

Mar. 16, 2013 Rise Set
Actual Time 7:49 AM EDT 7:48 PM EDT
Civil Twilight 7:22 AM EDT 8:15 PM EDT
Nautical Twilight 6:49 AM EDT 8:48 PM EDT
Astronomical Twilight 6:16 AM EDT 9:21 PM EDT
Moon 10:14 AM EDT (3/16) 12:05 AM EDT (3/16)
Length of Visible Light 12h 53m
Length of Day
11h 58m
Waxing Crescent, 23% of the Moon is Illuminated
Mar 16
Waxing Crescent
Mar 19
First Quarter
Mar 27
Full
Apr 3
Last Quarter
Apr 10
New

Hourly Weather History & Observations

Time (EDT) Temp. Windchill Dew Point Humidity Pressure Visibility Wind Dir Wind Speed Gust Speed Precip Events Conditions
12:15 AM 35.8 °F 31.9 °F 34.0 °F 93% 29.79 in 3.0 mi ENE 4.6 mph - N/A Rain Light Rain
12:34 AM 35.6 °F 32.8 °F 34.0 °F 94% 29.79 in 2.5 mi East 3.5 mph - N/A   Overcast
12:54 AM 35.6 °F 32.8 °F 33.8 °F 93% 29.79 in 2.5 mi East 3.5 mph - N/A Rain Light Rain
1:15 AM 35.6 °F 30.7 °F 33.8 °F 93% 29.79 in 3.0 mi East 5.8 mph - N/A Rain Rain
1:54 AM 35.1 °F 29.3 °F 33.4 °F 94% 29.75 in 2.5 mi East 6.9 mph - N/A   Overcast
2:15 AM 34.9 °F 27.7 °F 33.3 °F 94% 29.74 in 2.5 mi ENE 9.2 mph - N/A   Overcast
2:34 AM 34.7 °F 26.9 °F 33.1 °F 94% 29.73 in 3.0 mi East 10.4 mph - N/A   Overcast
2:54 AM 34.3 °F 26.5 °F 32.7 °F 94% 29.73 in 3.0 mi ENE 10.4 mph - N/A   Overcast
3:15 AM 34.0 °F 27.2 °F 32.4 °F 94% 29.74 in 2.5 mi ENE 8.1 mph - N/A   Overcast
3:34 AM 33.8 °F 27.0 °F 32.4 °F 94% 29.72 in 2.0 mi East 8.1 mph - N/A Rain Light Rain
3:54 AM 33.8 °F 27.7 °F 32.4 °F 94% 29.72 in 2.0 mi East 6.9 mph - N/A   Overcast
4:14 AM 33.8 °F 27.0 °F 32.2 °F 94% 29.73 in 3.0 mi ENE 8.1 mph - N/A Rain Light Rain
4:34 AM 33.4 °F 27.3 °F 32.0 °F 94% 29.72 in 2.5 mi East 6.9 mph - N/A Snow Light Snow
4:54 AM 33.4 °F 26.6 °F 32.2 °F 95% 29.70 in 3.0 mi ENE 8.1 mph - N/A Snow Light Snow
5:14 AM 33.3 °F 26.4 °F 32.0 °F 95% 29.69 in 4.0 mi East 8.1 mph - N/A Snow Light Snow
5:34 AM 33.3 °F 26.4 °F 32.0 °F 95% 29.68 in 5.0 mi East 8.1 mph - N/A   Overcast
5:54 AM 33.3 °F 26.4 °F 32.0 °F 95% 29.69 in 7.0 mi East 8.1 mph - N/A   Overcast
6:14 AM 33.4 °F 25.9 °F 32.0 °F 94% 29.68 in 10.0 mi East 9.2 mph - N/A   Overcast
6:34 AM 33.4 °F 25.4 °F 31.6 °F 93% 29.69 in 10.0 mi ENE 10.4 mph - N/A   Overcast
6:55 AM 32.9 °F 24.7 °F 31.3 °F 94% 29.71 in 7.0 mi ENE 10.4 mph - N/A   Overcast
7:14 AM 32.4 °F 23.5 °F 30.0 °F 91% 29.71 in 10.0 mi East 11.5 mph - N/A   Overcast
7:34 AM 32.0 °F 24.2 °F 30.0 °F 92% 29.72 in 10.0 mi ENE 9.2 mph - N/A   Overcast
7:55 AM 32.0 °F 24.8 °F 29.3 °F 90% 29.72 in 10.0 mi ENE 8.1 mph - N/A   Overcast
8:14 AM 31.1 °F 23.7 °F 28.2 °F 89% 29.72 in 10.0 mi ENE 8.1 mph 19.6 mph N/A   Overcast
8:34 AM 31.1 °F 22.4 °F 28.0 °F 88% 29.72 in 10.0 mi East 10.4 mph - N/A   Overcast
8:54 AM 30.9 °F 24.3 °F 28.2 °F 90% 29.72 in 10.0 mi ENE 6.9 mph - N/A   Overcast
9:14 AM 30.7 °F 22.6 °F 27.7 °F 88% 29.74 in 10.0 mi ENE 9.2 mph - N/A   Overcast
9:35 AM 30.7 °F 23.3 °F 27.5 °F 88% 29.73 in 10.0 mi East 8.1 mph - N/A   Overcast
9:54 AM 30.7 °F 23.3 °F 27.9 °F 89% 29.75 in 5.0 mi NNE 8.1 mph - N/A   Overcast
10:14 AM 30.2 °F 21.3 °F 27.7 °F 90% 29.76 in 4.0 mi NE 10.4 mph - N/A Snow Light Snow
10:34 AM 30.0 °F 21.1 °F 27.7 °F 91% 29.76 in 2.5 mi NE 10.4 mph - N/A   Overcast
10:54 AM 29.8 °F 20.9 °F 27.5 °F 91% 29.76 in 7.0 mi NE 10.4 mph - N/A   Overcast
11:14 AM 30.0 °F 21.1 °F 27.7 °F 91% 29.77 in 10.0 mi NNE 10.4 mph - N/A   Overcast
11:34 AM 30.0 °F 21.1 °F 27.5 °F 90% 29.79 in 10.0 mi NE 10.4 mph - N/A   Overcast
11:54 AM 29.8 °F 20.9 °F 27.3 °F 90% 29.80 in 10.0 mi North 10.4 mph - N/A   Overcast
12:14 PM 29.3 °F 19.6 °F 26.6 °F 90% 29.82 in 10.0 mi North 11.5 mph - N/A   Overcast
12:34 PM 28.6 °F 20.7 °F 26.4 °F 92% 29.83 in 10.0 mi NNE 8.1 mph - N/A   Overcast
12:54 PM 28.4 °F 19.7 °F 26.2 °F 92% 29.84 in 5.0 mi NNE 9.2 mph - N/A   Overcast
1:14 PM 28.4 °F 19.1 °F 26.4 °F 92% 29.85 in 5.0 mi North 10.4 mph - N/A   Overcast
1:34 PM 28.9 °F 18.2 °F 26.4 °F 90% 29.85 in 10.0 mi North 13.8 mph - N/A   Overcast
1:54 PM 28.8 °F 20.2 °F 26.2 °F 90% 29.86 in 10.0 mi North 9.2 mph - N/A   Overcast
2:14 PM 28.8 °F 20.2 °F 25.9 °F 89% 29.87 in 10.0 mi North 9.2 mph - N/A   Overcast
2:34 PM 28.8 °F 20.2 °F 25.9 °F 89% 29.88 in 10.0 mi NNE 9.2 mph - N/A   Overcast
2:54 PM 29.3 °F 21.5 °F 26.4 °F 89% 29.89 in 10.0 mi North 8.1 mph - N/A   Overcast
3:14 PM 29.3 °F 20.2 °F 26.6 °F 90% 29.89 in 10.0 mi North 10.4 mph - N/A   Overcast
3:34 PM 29.5 °F 21.8 °F 26.2 °F 88% 29.90 in 10.0 mi North 8.1 mph - N/A   Overcast
3:54 PM 29.8 °F 23.0 °F 26.6 °F 88% 29.90 in 10.0 mi North 6.9 mph - N/A   Overcast
4:14 PM 30.0 °F 21.7 °F 26.6 °F 87% 29.91 in 10.0 mi North 9.2 mph - N/A   Overcast
4:34 PM 30.4 °F 23.6 °F 26.4 °F 85% 29.91 in 10.0 mi North 6.9 mph - N/A   Overcast
4:54 PM 30.4 °F 24.5 °F 26.1 °F 84% 29.91 in 10.0 mi North 5.8 mph - N/A   Overcast
5:14 PM 30.4 °F 23.6 °F 26.1 °F 84% 29.93 in 10.0 mi North 6.9 mph - N/A   Overcast
5:34 PM 30.9 °F 26.2 °F 26.6 °F 84% 29.93 in 10.0 mi North 4.6 mph - N/A   Overcast
5:54 PM 30.6 °F 25.8 °F 26.1 °F 83% 29.94 in 10.0 mi North 4.6 mph - N/A   Overcast
6:14 PM 30.4 °F 22.9 °F 25.0 °F 80% 29.95 in 10.0 mi North 8.1 mph - N/A   Overcast
6:34 PM 30.6 °F 23.8 °F 23.9 °F 76% 29.96 in 10.0 mi North 6.9 mph - N/A   Overcast
6:54 PM 30.6 °F 23.8 °F 24.1 °F 77% 29.96 in 10.0 mi North 6.9 mph - N/A   Overcast
7:14 PM 30.6 °F 25.8 °F 24.4 °F 78% 29.96 in 10.0 mi North 4.6 mph - N/A   Overcast
7:34 PM 30.6 °F 25.8 °F 23.7 °F 76% 29.97 in 10.0 mi North 4.6 mph - N/A   Overcast
7:54 PM 30.6 °F - 22.8 °F 73% 29.97 in 10.0 mi Calm Calm - N/A   Overcast
8:15 PM 30.6 °F - 24.1 °F 77% 29.98 in 10.0 mi Calm Calm - N/A   Overcast
8:34 PM 30.7 °F 27.3 °F 24.3 °F 77% 29.99 in 10.0 mi WNW 3.5 mph - N/A   Overcast
8:54 PM 30.7 °F 27.3 °F 24.4 °F 77% 29.99 in 10.0 mi WNW 3.5 mph - N/A   Overcast
9:15 PM 30.9 °F 26.2 °F 23.0 °F 72% 29.99 in 10.0 mi WNW 4.6 mph - N/A   Overcast
9:34 PM 30.9 °F - 22.8 °F 72% 29.99 in 10.0 mi Calm Calm - N/A   Overcast
9:54 PM 30.6 °F - 23.0 °F 74% 30.00 in 10.0 mi Calm Calm - N/A   Overcast
10:14 PM 30.7 °F - 23.7 °F 75% 30.00 in 10.0 mi Calm Calm - N/A   Overcast
10:34 PM 30.7 °F - 24.1 °F 76% 30.01 in 10.0 mi Calm Calm - N/A   Overcast
10:54 PM 30.6 °F 27.1 °F 25.3 °F 81% 30.01 in 10.0 mi West 3.5 mph - N/A   Overcast
11:14 PM 30.6 °F 23.1 °F 24.6 °F 79% 30.03 in 10.0 mi West 8.1 mph - N/A   Overcast
11:34 PM 30.2 °F 21.3 °F 24.4 °F 79% 30.04 in 10.0 mi WNW 10.4 mph - N/A   Overcast
11:54 PM 29.1 °F 19.4 °F 22.8 °F 77% 30.04 in 10.0 mi WNW 11.5 mph 16.1 mph N/A   Overcast